Location: Newark
(43.0000°N, 1.6781°W)
Time: 18:12:22
(UTC+00:00)

Explorer 11/Cluster Stage 4 - All Passes

Search period start: 19 April 2021 00:00
Search period end: 29 April 2021 00:00
Orbit: 467 x 1257 km, 28.8° (Epoch: 18 April)

Date Brightness Start Highest point End Pass type
(mag) Time Alt. Az. Time Alt. Az. Time Alt. Az.
19 Apr - 08:37:43 10° SSW 08:40:27 15° S 08:43:30 10° SE daylight
19 Apr - 10:24:49 10° SW 10:28:08 17° S 10:31:52 10° SSE daylight
19 Apr - 12:15:10 10° SSW 12:16:00 10° SSW 12:16:50 10° S daylight
20 Apr - 08:26:54 10° SSW 08:29:23 15° S 08:32:07 10° SE daylight
20 Apr - 10:14:13 10° SW 10:17:01 15° S 10:20:08 10° SSE daylight
21 Apr - 08:16:08 10° SSW 08:18:20 14° S 08:20:43 10° SE daylight
21 Apr - 10:03:50 10° SSW 10:05:57 13° S 10:08:14 10° SSE daylight
22 Apr - 08:05:26 10° SSW 08:07:17 13° S 08:09:16 10° SSE daylight
22 Apr - 09:53:56 10° SSW 09:54:52 10° S 09:55:51 10° S daylight
23 Apr - 07:54:51 10° SSW 07:56:15 11° S 07:57:44 10° SSE daylight
24 Apr - 07:44:34 10° SSW 07:45:14 10° S 07:45:56 10° S daylight
